Tracking 27111 objects as of 28-Mar-2023
HD Live streaming from Space Station
objects crossing your sky now

STARLINK-5450

Track STARLINK-5450 now!
10-day predictions
STARLINK-5450 is classified as:


NORAD ID: 54778
Int'l Code: 2022-175W
Perigee: 546.0 km
Apogee: 547.7 km
Inclination: 53.2 °
Period: 95.4 minutes
Semi major axis: 6917 km
RCS: Unknown
Launch date: December 17, 2022
Source: United States (US)
Launch site: AIR FORCE EASTERN TEST RANGE (AFETR)
Your satellite tracking list
Your tracking list is empty




NASA's NSSDC Master Catalog

Two Line Element Set (TLE):
1 54778U 22175W   23087.46070425 -.00003577  00000-0 -20672-3 0  9990
2 54778  53.2174 185.0536 0001218  88.4588 271.6544 15.08847582 15346
Source of the keplerian elements: AFSPC